Beckley, WV

2:24 AM EDT on October 18, 2017 (GMT -0400)
Raleigh County Memorial

Weather History for KBKW - November, 2012

Change the Weather History Date:

Wednesday, November 14, 2012

  Actual Average Record
Temperature  
Mean Temperature 33 °F 44 °F  
Max Temperature 44 °F 54 °F 78 °F (1993)
Min Temperature 22 °F 35 °F 8 °F (1986)
Degree Days  
Heating Degree Days 32 20  
Month to date heating degree days 334 255  
Since 1 July heating degree days 862 761  
Cooling Degree Days 0 0  
Month to date cooling degree days 0 0  
Year to date cooling degree days 761 556  
Moisture  
Dew Point 23 °F    
Average Humidity 66    
Maximum Humidity 81    
Minimum Humidity 51    
Precipitation  
Precipitation 0.00 in 0.10 in 1.25 in (1915)
Month to date precipitation 0.51 1.34  
Year to date precipitation 41.01 36.58  
Snow  
Snow 0.00 in - - ()
Month to date snowfall T  
Since 1 September snowfall 22.9  
Snow Depth 0.00 in    
Sea Level Pressure  
Sea Level Pressure 30.45 in    
Wind  
Wind Speed 3 mph (ESE)    
Max Wind Speed 15 mph    
Max Gust Speed 18 mph    
Visibility 10 miles    
Events      
T = Trace of Precipitation, MM = Missing Value Source: NWS Daily Summary

Daily Weather History Graph

Daily Weather History Graph

Search for Another Location

Airport or City:

Trip Planner

Search our weather history database for the weather conditions in past years. The results will help you decide how hot, cold, wet, or windy it might be!

Date:

Astronomy

Nov. 14, 2012 Rise Set
Actual Time 7:04 AM EST 5:13 PM EST
Civil Twilight 6:36 AM EST 5:41 PM EST
Nautical Twilight 6:04 AM EST 6:13 PM EST
Astronomical Twilight 5:33 AM EST 6:44 PM EST
Moon 7:50 AM EST (11/14) 6:01 PM EST (11/14)
Length of Visible Light 11h 05m
Length of Day
10h 09m
New Moon, 1% of the Moon is Illuminated
Nov 14
New Moon
Nov 20
First Quarter
Nov 28
Full
Dec 6
Last Quarter
Dec 13
New

Hourly Weather History & Observations

Time (EST) Temp. Windchill Dew Point Humidity Pressure Visibility Wind Dir Wind Speed Gust Speed Precip Events Conditions
12:51 AM 26.1 °F - 19.9 °F 78% 30.48 in 10.0 mi Calm Calm - N/A   Clear
1:51 AM 26.1 °F - 21.0 °F 81% 30.47 in 10.0 mi Calm Calm - N/A   Clear
2:51 AM 25.0 °F - 19.9 °F 81% 30.48 in 10.0 mi Calm Calm - N/A   Clear
3:51 AM 24.1 °F - 19.9 °F 84% 30.49 in 10.0 mi Calm Calm - N/A   Clear
4:51 AM 24.1 °F - 19.9 °F 84% 30.48 in 10.0 mi Calm Calm - N/A   Clear
5:51 AM 24.1 °F 19.7 °F 19.9 °F 84% 30.50 in 10.0 mi East 3.5 mph - N/A   Clear
6:51 AM 24.1 °F - 19.0 °F 81% 30.50 in 10.0 mi Calm Calm - N/A   Clear
7:51 AM 28.9 °F - 21.9 °F 75% 30.50 in 10.0 mi Calm Calm - N/A   Clear
8:51 AM 30.9 °F 25.2 °F 24.1 °F 76% 30.52 in 10.0 mi SE 5.8 mph - N/A   Clear
9:51 AM 34.0 °F 26.6 °F 24.1 °F 67% 30.52 in 10.0 mi ESE 9.2 mph - N/A   Clear
10:51 AM 37.0 °F 32.4 °F 25.0 °F 62% 30.51 in 10.0 mi ESE 5.8 mph - N/A   Clear
11:51 AM 39.0 °F 35.7 °F 25.0 °F 57% 30.47 in 10.0 mi East 4.6 mph - N/A   Clear
12:51 PM 41.0 °F 38.0 °F 25.0 °F 53% 30.44 in 10.0 mi ENE 4.6 mph - N/A   Clear
1:51 PM 43.0 °F 38.8 °F 26.1 °F 51% 30.42 in 10.0 mi SE 6.9 mph - N/A   Clear
2:51 PM 43.0 °F 38.8 °F 26.1 °F 51% 30.41 in 10.0 mi SE 6.9 mph - N/A   Clear
3:51 PM 42.1 °F 40.2 °F 26.1 °F 53% 30.41 in 10.0 mi SE 3.5 mph - N/A   Clear
4:51 PM 39.9 °F 37.8 °F 26.1 °F 58% 30.42 in 10.0 mi SE 3.5 mph - N/A   Clear
5:51 PM 37.0 °F - 26.1 °F 65% 30.42 in 10.0 mi Calm Calm - N/A   Clear
6:51 PM 36.0 °F 33.3 °F 26.1 °F 67% 30.42 in 10.0 mi East 3.5 mph - N/A   Clear
7:51 PM 36.0 °F - 26.1 °F 67% 30.41 in 10.0 mi Calm Calm - N/A   Clear
8:51 PM 36.0 °F - 25.0 °F 64% 30.41 in 10.0 mi Calm Calm - N/A   Clear
9:51 PM 36.0 °F 29.6 °F 24.1 °F 62% 30.40 in 10.0 mi ESE 8.1 mph - N/A   Clear
10:51 PM 35.1 °F 27.9 °F 24.1 °F 64% 30.38 in 10.0 mi SSE 9.2 mph - N/A   Clear
11:51 PM 35.1 °F 29.3 °F 24.1 °F 64% 30.35 in 10.0 mi SE 6.9 mph - N/A   Clear